EA5DHO-13 Weather Reports


Display with metric or nautical units.
time (UTC)temp
F
wind
direction
speed
MPH
gust
MPH
rain 1hr
in
rain 24hr
in
rain mn
in
humidity
%
barometer
mb
20260903104425 85 226 5.0 9.0 0.00 0.00 0.00 71 1025.5
20260903103423 85 87 5.0 11.0 0.00 0.00 0.00 72 1025.6
20260903102419 86 141 3.0 7.0 0.00 0.00 0.00 70 1025.6
20260903101415 85 108 4.0 6.0 0.00 0.00 0.00 74 1025.6
20260903100512 85 170 3.0 9.0 0.00 0.00 0.00 75 1025.6
20260903095509 85 105 5.0 9.0 0.00 0.00 0.00 73 1025.5
20260903094505 85 68 6.0 8.0 0.00 0.00 0.00 72 1025.6
20260903093502 85 61 2.0 4.0 0.00 0.00 0.00 74 1025.4
20260903092519 84 68 3.0 6.0 0.00 0.00 0.00 74 1025.5
20260903091456 84 0.0 2.0 0.00 0.00 0.00 74 1025.5
20260903090452 84 0.0 0.0 0.00 0.00 0.00 74 1025.5
20260903085450 84 113 1.0 4.0 0.00 0.00 0.00 74 1025.5
20260903084446 83 23 0.0 2.0 0.00 0.00 0.00 75 1025.3
20260903083444 83 23 0.0 2.0 0.00 0.00 0.00 76 1025.4
20260903082440 84 210 1.0 2.0 0.00 0.00 0.00 75 1025.4
20260903081458 84 0.0 0.0 0.00 0.00 0.00 77 1025.3
20260903080433 82 0.0 2.0 0.00 0.00 0.00 80 1025.4
20260903075430 81 38 1.0 2.0 0.00 0.00 0.00 79 1025.3
20260903074427 81 0.0 2.0 0.00 0.00 0.00 80 1025.3
20260903073423 80 0.0 0.0 0.00 0.00 0.00 80 1025.2
20260903072420 81 0.0 2.0 0.00 0.00 0.00 81 1025.3
20260903071417 79 0.0 0.0 0.00 0.00 0.00 83 1025.1
20260903070515 78 0.0 0.0 0.00 0.00 0.00 84 1025.2
20260903065511 78 315 1.0 2.0 0.00 0.00 0.00 85 1025.2
20260903064508 79 0.0 0.0 0.00 0.00 0.00 86 1025.0
20260903063504 78 0.0 0.0 0.00 0.00 0.00 88 1024.9
20260903062501 77 0.0 0.0 0.00 0.00 0.00 89 1024.8
20260903061458 76 0.0 0.0 0.00 0.00 0.00 90 1024.8
20260903060454 76 0.0 2.0 0.00 0.00 0.00 90 1024.6
20260903055453 76 0.0 0.0 0.00 0.00 0.00 90 1024.4
20260903054448 76 0.0 0.0 0.00 0.00 0.00 91 1024.3
20260903053444 76 0.0 0.0 0.00 0.00 0.00 91 1024.3
20260903052501 76 0.0 2.0 0.00 0.00 0.00 91 1024.3
20260903051438 76 0.0 0.0 0.00 0.00 0.00 90 1024.2
20260903050435 76 0.0 0.0 0.00 0.00 0.00 91 1024.2
20260903045515 76 315 0.0 2.0 0.00 0.00 0.00 90 1024.0
20260903044429 76 0.0 0.0 0.00 0.00 0.00 90 1024.1
20260903043445 76 0.0 0.0 0.00 0.00 0.00 90 1024.0
20260903042423 76 0.0 0.0 0.00 0.00 0.00 90 1023.9
20260903041418 76 0.0 0.0 0.00 0.00 0.00 90 1023.8
20260903040415 77 0.0 0.0 0.00 0.00 0.00 90 1023.7
20260903035532 77 0.0 0.0 0.00 0.00 0.00 90 1023.7
20260903034509 77 0.0 0.0 0.00 0.00 0.00 90 1023.7
20260903033506 77 0.0 0.0 0.00 0.00 0.00 89 1023.8
20260903032502 77 0.0 0.0 0.00 0.00 0.00 89 1023.8
20260903031459 77 0.0 0.0 0.00 0.00 0.00 89 1023.8
20260903030457 77 0.0 0.0 0.00 0.00 0.00 89 1023.8
20260903025452 77 0.0 0.0 0.00 0.00 0.00 89 1023.8
20260903024450 77 0.0 0.0 0.00 0.00 0.00 89 1023.9
20260903023446 77 0.0 0.0 0.00 0.00 0.00 89 1023.8
20260903022503 78 0.0 0.0 0.00 0.00 0.00 89 1023.9
20260903021441 78 248 1.0 2.0 0.00 0.00 0.00 88 1023.8
20260903020519 78 248 1.0 2.0 0.00 0.00 0.00 88 1023.9
20260903015433 78 248 0.0 2.0 0.00 0.00 0.00 88 1023.8
20260903014430 78 248 2.0 4.0 0.00 0.00 0.00 88 1023.8
20260903013427 78 0.0 0.0 0.00 0.00 0.00 88 1023.8
20260903012424 78 219 2.0 4.0 0.00 0.00 0.00 88 1023.9
20260903011420 78 248 2.0 2.0 0.00 0.00 0.00 89 1023.9
20260903010417 78 241 4.0 4.0 0.00 0.00 0.00 89 1023.9
20260903005514 78 0.0 0.0 0.00 0.00 0.00 89 1023.9
20260903004511 78 248 1.0 2.0 0.00 0.00 0.00 89 1024.0
20260903003507 78 225 1.0 4.0 0.00 0.00 0.00 89 1024.1
20260903002504 78 270 1.0 2.0 0.00 0.00 0.00 89 1024.1
20260903001501 78 270 2.0 4.0 0.00 0.00 0.00 89 1024.2
20260903000458 78 248 2.0 2.0 0.00 0.00 0.00 88 1024.3
20260902235516 78 270 2.0 4.0 0.00 0.00 0.00 88 1024.3
20260902234512 78 270 2.0 4.0 0.00 0.00 0.00 88 1024.3
20260902233449 79 257 3.0 4.0 0.00 0.00 0.00 88 1024.2
20260902232505 79 270 3.0 4.0 0.00 0.00 0.00 87 1024.2
20260902231441 79 253 2.0 2.0 0.00 0.00 0.00 86 1024.3
20260902230438 79 261 2.0 2.0 0.00 0.00 0.00 86 1024.3
20260902225436 79 263 2.0 2.0 0.00 0.00 0.00 86 1024.4
20260902224432 79 270 2.0 2.0 0.00 0.00 0.00 86 1024.3
20260902223450 79 270 2.0 4.0 0.00 0.00 0.00 86 1024.3
20260902222506 79 225 1.0 2.0 0.00 0.00 0.00 86 1024.3
20260902221421 79 203 2.0 2.0 0.00 0.00 0.00 86 1024.2
20260902220438 79 0.0 2.0 0.00 0.00 0.00 87 1024.2
20260902215415 80 158 1.0 2.0 0.00 0.00 0.00 87 1024.3
20260902214533 80 0.0 2.0 0.00 0.00 0.00 87 1024.1
20260902213509 79 0.0 0.0 0.00 0.00 0.00 87 1024.1
20260902212547 80 0.0 2.0 0.00 0.00 0.00 87 1024.2
20260902211504 80 0.0 2.0 0.00 0.00 0.00 87 1024.1
20260902210500 80 90 0.0 4.0 0.00 0.00 0.00 87 1024.2
20260902205456 80 107 2.0 4.0 0.00 0.00 0.00 87 1024.1
20260902204454 80 117 2.0 4.0 0.00 0.00 0.00 87 1024.0
20260902203451 80 68 1.0 4.0 0.00 0.00 0.00 88 1024.0
20260902202507 80 68 0.0 2.0 0.00 0.00 0.00 88 1023.9
20260902201443 80 68 2.0 4.0 0.00 0.00 0.00 87 1023.8
20260902200439 80 45 2.0 4.0 0.00 0.00 0.00 87 1023.7
20260902195436 80 45 3.0 6.0 0.00 0.00 0.00 87 1023.5
20260902194434 80 68 1.0 4.0 0.00 0.00 0.00 86 1023.5
20260902193451 80 79 3.0 7.0 0.00 0.00 0.00 87 1023.2
20260902192426 80 45 3.0 8.0 0.00 0.00 0.00 86 1023.2
20260902191423 80 97 3.0 4.0 0.00 0.00 0.00 86 1023.0
20260902190419 80 23 2.0 4.0 0.00 0.00 0.00 86 1022.8
20260902185416 80 36 2.0 4.0 0.00 0.00 0.00 85 1022.7
20260902184534 81 68 2.0 4.0 0.00 0.00 0.00 84 1022.6
20260902183531 80 54 3.0 4.0 0.00 0.00 0.00 83 1022.6
20260902182507 81 53 3.0 7.0 0.00 0.00 0.00 83 1022.6
20260902181546 81 68 4.0 7.0 0.00 0.00 0.00 83 1022.5
20260902180500 81 45 4.0 8.0 0.00 0.00 0.00 83 1022.6
20260902175457 81 79 4.0 9.0 0.00 0.00 0.00 82 1022.6
20260902174454 81 63 4.0 13.0 0.00 0.00 0.00 82 1022.7
20260902173450 81 73 6.0 11.0 0.00 0.00 0.00 81 1022.7
20260902172449 82 45 4.0 7.0 0.00 0.00 0.00 80 1022.6
20260902171445 82 52 3.0 7.0 0.00 0.00 0.00 79 1022.6
20260902170501 83 68 4.0 11.0 0.00 0.00 0.00 78 1022.5
20260902165438 82 91 8.0 11.0 0.00 0.00 0.00 79 1022.4
20260902164435 83 97 5.0 7.0 0.00 0.00 0.00 79 1022.4
20260902163432 83 85 7.0 11.0 0.00 0.00 0.00 79 1022.5
20260902162429 83 77 7.0 13.0 0.00 0.00 0.00 77 1022.5
20260902161426 83 82 5.0 8.0 0.00 0.00 0.00 78 1022.4
20260902160421 83 75 3.0 7.0 0.00 0.00 0.00 78 1022.5
20260902155418 83 68 9.0 13.0 0.00 0.00 0.00 78 1022.4
20260902154435 83 58 5.0 9.0 0.00 0.00 0.00 79 1022.5
20260902153532 83 68 6.0 11.0 0.00 0.00 0.00 78 1022.7
20260902152508 83 78 5.0 9.0 0.00 0.00 0.00 78 1022.7
20260902151506 83 72 6.0 11.0 0.00 0.00 0.00 77 1022.6
20260902150502 84 144 9.0 16.0 0.00 0.00 0.00 76 1022.6
20260902145459 83 76 6.0 11.0 0.00 0.00 0.00 78 1022.6
20260902144457 83 85 9.0 15.0 0.00 0.00 0.00 77 1022.8
20260902143454 83 82 9.0 15.0 0.00 0.00 0.00 76 1022.8
20260902142449 85 58 5.0 11.0 0.00 0.00 0.00 74 1022.9
20260902141447 84 96 8.0 11.0 0.00 0.00 0.00 72 1023.0
20260902140443 84 111 3.0 7.0 0.00 0.00 0.00 74 1023.1
20260902135439 83 124 6.0 11.0 0.00 0.00 0.00 75 1023.1
20260902134437 84 90 5.0 11.0 0.00 0.00 0.00 76 1023.1
20260902133433 83 90 5.0 8.0 0.00 0.00 0.00 77 1023.2
20260902132430 83 84 6.0 16.0 0.00 0.00 0.00 76 1023.1
20260902131426 82 59 8.0 13.0 0.00 0.00 0.00 79 1023.2
20260902130423 84 90 6.0 14.0 0.00 0.00 0.00 76 1023.2
20260902125420 85 191 4.0 9.0 0.00 0.00 0.00 75 1023.3
20260902124417 82 135 9.0 15.0 0.00 0.00 0.00 76 1023.4
20260902123514 83 90 7.0 11.0 0.00 0.00 0.00 77 1023.4
20260902122511 83 75 7.0 11.0 0.00 0.00 0.00 74 1023.5
20260902121507 84 150 6.0 9.0 0.00 0.00 0.00 72 1023.5
20260902120504 84 104 3.0 7.0 0.00 0.00 0.00 73 1023.5
20260902115502 85 68 2.0 4.0 0.00 0.00 0.00 72 1023.6
20260902114458 83 68 5.0 9.0 0.00 0.00 0.00 75 1023.6
20260902113537 84 152 6.0 11.0 0.00 0.00 0.00 75 1023.7
20260902112451 83 74 6.0 9.0 0.00 0.00 0.00 74 1023.7
20260902111448 82 90 4.0 9.0 0.00 0.00 0.00 77 1023.8
20260902110505 82 68 7.0 13.0 0.00 0.00 0.00 76 1023.9
20260902105442 83 86 4.0 8.0 0.00 0.00 0.00 74 1023.8